Time,TemperatureF,DewpointF,PressureIn,WindDirection,WindDirectionDegrees,WindSpeedMPH,WindSpeedGustMPH,Humidity,HourlyPrecipIn,Conditions,Clouds,dailyrainin,SolarRadiationWatts/m^2,SoftwareType,DateUTC
2013-01-27 00:00:00,32.6,30.0,29.77,North,-999,0.0,0.0,90,0.03,,,-99.99,0,WeatherLink 5.7,2013-01-27 07:00:00,
2013-01-27 00:05:00,32.5,30.2,29.77,North,-999,0.0,0.0,91,0.02,,,-99.99,0,WeatherLink 5.7,2013-01-27 07:05:00,
2013-01-27 00:15:00,32.5,30.2,29.77,North,-999,0.0,0.0,91,0.02,,,-99.99,0,WeatherLink 5.7,2013-01-27 07:15:00,
2013-01-27 00:25:00,32.5,30.2,29.76,North,-999,0.0,0.0,91,0.01,,,-99.99,0,WeatherLink 5.7,2013-01-27 07:25:00,
2013-01-27 00:30:00,32.4,30.1,29.76,North,-999,0.0,0.0,91,0.01,,,-99.99,0,WeatherLink 5.7,2013-01-27 07:30:00,
2013-01-27 00:35:00,32.4,30.1,29.77,North,-999,0.0,0.0,91,0.01,,,-99.99,0,WeatherLink 5.7,2013-01-27 07:35:00,
2013-01-27 00:40:00,32.4,30.1,29.77,North,-999,0.0,0.0,91,0.01,,,-99.99,0,WeatherLink 5.7,2013-01-27 07:40:00,
2013-01-27 00:50:00,32.6,30.3,29.76,North,-999,0.0,0.0,91,0.00,,,-99.99,0,WeatherLink 5.7,2013-01-27 07:50:00,
2013-01-27 00:55:00,32.6,30.3,29.76,NNW,337,0.0,1.0,91,0.00,,,-99.99,0,WeatherLink 5.7,2013-01-27 07:55:00,
2013-01-27 01:00:00,32.6,30.3,29.76,North,-999,0.0,0.0,91,0.00,,,-99.99,0,WeatherLink 5.7,2013-01-27 08:00:00,
2013-01-27 01:10:00,32.5,30.2,29.76,North,-999,0.0,0.0,91,0.01,,,-99.99,0,WeatherLink 5.7,2013-01-27 08:10:00,
2013-01-27 01:15:00,32.5,30.2,29.76,North,-999,0.0,0.0,91,0.01,,,-99.99,0,WeatherLink 5.7,2013-01-27 08:15:00,
2013-01-27 01:25:00,32.8,30.5,29.75,NNW,337,1.0,5.0,91,0.01,,,-99.99,0,WeatherLink 5.7,2013-01-27 08:25:00,
2013-01-27 01:30:00,32.9,30.6,29.75,NW,315,3.0,6.0,91,0.01,,,-99.99,0,WeatherLink 5.7,2013-01-27 08:30:00,
2013-01-27 01:40:00,33.1,30.8,29.75,NW,315,3.0,5.0,91,0.02,,,-99.99,0,WeatherLink 5.7,2013-01-27 08:40:00,
2013-01-27 01:45:00,33.1,30.8,29.75,NW,315,4.0,6.0,91,0.03,,,-99.99,0,WeatherLink 5.7,2013-01-27 08:45:00,
2013-01-27 01:50:00,33.1,30.8,29.74,NW,315,4.0,6.0,91,0.03,,,-99.99,0,WeatherLink 5.7,2013-01-27 08:50:00,
2013-01-27 02:00:00,33.1,30.8,29.74,NW,315,2.0,4.0,91,0.04,,,-99.99,0,WeatherLink 5.7,2013-01-27 09:00:00,
2013-01-27 02:10:00,33.1,30.8,29.75,NW,315,3.0,5.0,91,0.03,,,-99.99,0,WeatherLink 5.7,2013-01-27 09:10:00,
2013-01-27 02:15:00,33.2,30.9,29.75,NW,315,3.0,5.0,91,0.03,,,-99.99,0,WeatherLink 5.7,2013-01-27 09:15:00,
2013-01-27 02:20:00,33.4,31.1,29.75,NW,315,3.0,5.0,91,0.04,,,-99.99,0,WeatherLink 5.7,2013-01-27 09:20:00,
2013-01-27 02:30:00,33.4,31.1,29.75,NW,315,1.0,5.0,91,0.04,,,-99.99,0,WeatherLink 5.7,2013-01-27 09:30:00,
2013-01-27 02:35:00,33.5,31.2,29.75,NW,315,0.0,3.0,91,0.04,,,-99.99,0,WeatherLink 5.7,2013-01-27 09:35:00,
2013-01-27 02:45:00,33.7,31.4,29.75,North,-999,0.0,0.0,91,0.03,,,-99.99,0,WeatherLink 5.7,2013-01-27 09:45:00,
2013-01-27 02:50:00,33.4,31.1,29.75,NNW,337,0.0,1.0,91,0.03,,,-99.99,0,WeatherLink 5.7,2013-01-27 09:50:00,
2013-01-27 02:55:00,33.4,31.1,29.75,North,-999,0.0,0.0,91,0.03,,,-99.99,0,WeatherLink 5.7,2013-01-27 09:55:00,
2013-01-27 03:00:00,33.2,30.9,29.75,North,-999,0.0,0.0,91,0.03,,,-99.99,0,WeatherLink 5.7,2013-01-27 10:00:00,
2013-01-27 03:10:00,33.5,31.2,29.75,NNW,337,0.0,3.0,91,0.03,,,-99.99,0,WeatherLink 5.7,2013-01-27 10:10:00,
2013-01-27 03:15:00,33.7,31.4,29.75,North,-999,0.0,0.0,91,0.03,,,-99.99,0,WeatherLink 5.7,2013-01-27 10:15:00,
2013-01-27 03:25:00,34.0,31.6,29.75,WNW,292,0.0,3.0,91,0.02,,,-99.99,0,WeatherLink 5.7,2013-01-27 10:25:00,
2013-01-27 03:35:00,34.0,31.6,29.75,North,-999,0.0,0.0,91,0.02,,,-99.99,0,WeatherLink 5.7,2013-01-27 10:35:00,
2013-01-27 03:40:00,34.0,31.6,29.75,WNW,292,0.0,2.0,91,0.02,,,-99.99,0,WeatherLink 5.7,2013-01-27 10:40:00,
2013-01-27 03:50:00,34.0,31.6,29.74,North,-999,0.0,0.0,91,0.02,,,-99.99,0,WeatherLink 5.7,2013-01-27 10:50:00,
2013-01-27 03:55:00,34.0,31.6,29.74,WNW,292,0.0,2.0,91,0.02,,,-99.99,0,WeatherLink 5.7,2013-01-27 10:55:00,
2013-01-27 04:00:00,34.0,31.6,29.74,North,-999,0.0,0.0,91,0.01,,,-99.99,0,WeatherLink 5.7,2013-01-27 11:00:00,
2013-01-27 04:10:00,34.1,31.7,29.75,WNW,292,2.0,4.0,91,0.02,,,-99.99,0,WeatherLink 5.7,2013-01-27 11:10:00,
2013-01-27 04:15:00,34.3,31.9,29.75,NW,315,2.0,4.0,91,0.02,,,-99.99,0,WeatherLink 5.7,2013-01-27 11:15:00,
2013-01-27 04:25:00,34.1,31.7,29.76,NW,315,2.0,4.0,91,0.02,,,-99.99,0,WeatherLink 5.7,2013-01-27 11:25:00,
2013-01-27 04:35:00,34.0,31.6,29.76,NW,315,1.0,3.0,91,0.01,,,-99.99,0,WeatherLink 5.7,2013-01-27 11:35:00,
2013-01-27 04:40:00,34.0,31.6,29.76,NW,315,0.0,3.0,91,0.01,,,-99.99,0,WeatherLink 5.7,2013-01-27 11:40:00,
2013-01-27 04:50:00,34.0,31.6,29.77,North,-999,0.0,0.0,91,0.01,,,-99.99,0,WeatherLink 5.7,2013-01-27 11:50:00,
2013-01-27 04:55:00,34.0,31.6,29.77,North,-999,0.0,0.0,91,0.01,,,-99.99,0,WeatherLink 5.7,2013-01-27 11:55:00,
2013-01-27 05:00:00,34.1,31.7,29.77,North,-999,0.0,0.0,91,0.01,,,-99.99,0,WeatherLink 5.7,2013-01-27 12:00:00,
2013-01-27 05:10:00,34.6,32.2,29.77,North,-999,0.0,0.0,91,0.00,,,-99.99,0,WeatherLink 5.7,2013-01-27 12:10:00,
2013-01-27 05:15:00,34.7,32.3,29.77,NW,315,0.0,2.0,91,0.00,,,-99.99,0,WeatherLink 5.7,2013-01-27 12:15:00,
2013-01-27 05:20:00,34.7,32.3,29.78,North,0,0.0,6.0,91,0.00,,,-99.99,0,WeatherLink 5.7,2013-01-27 12:20:00,
2013-01-27 05:30:00,34.7,32.3,29.78,NNW,337,0.0,1.0,91,0.00,,,-99.99,0,WeatherLink 5.7,2013-01-27 12:30:00,
2013-01-27 05:35:00,34.6,32.2,29.79,North,-999,0.0,0.0,91,0.00,,,-99.99,0,WeatherLink 5.7,2013-01-27 12:35:00,
2013-01-27 05:45:00,34.6,32.2,29.79,North,-999,0.0,0.0,91,0.01,,,-99.99,0,WeatherLink 5.7,2013-01-27 12:45:00,
2013-01-27 05:50:00,34.7,32.3,29.79,NNW,337,0.0,3.0,91,0.01,,,-99.99,0,WeatherLink 5.7,2013-01-27 12:50:00,
2013-01-27 06:00:00,34.6,32.2,29.79,NNW,337,1.0,4.0,91,0.01,,,-99.99,0,WeatherLink 5.7,2013-01-27 13:00:00,
2013-01-27 06:10:00,34.4,32.0,29.80,NW,315,0.0,3.0,91,0.01,,,-99.99,0,WeatherLink 5.7,2013-01-27 13:10:00,
2013-01-27 06:20:00,34.4,32.0,29.81,NW,315,0.0,3.0,91,0.01,,,-99.99,0,WeatherLink 5.7,2013-01-27 13:20:00,
2013-01-27 06:25:00,34.4,32.0,29.81,North,-999,0.0,0.0,91,0.01,,,-99.99,0,WeatherLink 5.7,2013-01-27 13:25:00,
2013-01-27 06:35:00,34.9,32.5,29.80,NW,315,0.0,4.0,91,0.01,,,-99.99,0,WeatherLink 5.7,2013-01-27 13:35:00,
2013-01-27 06:40:00,35.0,32.6,29.80,NNW,337,2.0,6.0,91,0.01,,,-99.99,0,WeatherLink 5.7,2013-01-27 13:40:00,
2013-01-27 06:50:00,35.0,32.4,29.80,ENE,67,0.0,2.0,90,0.00,,,-99.99,0,WeatherLink 5.7,2013-01-27 13:50:00,
2013-01-27 06:55:00,34.9,32.3,29.80,ENE,67,0.0,2.0,90,0.00,,,-99.99,0,WeatherLink 5.7,2013-01-27 13:55:00,
2013-01-27 07:00:00,34.9,32.3,29.80,North,0,0.0,2.0,90,0.00,,,-99.99,0,WeatherLink 5.7,2013-01-27 14:00:00,
2013-01-27 07:10:00,34.9,32.3,29.80,North,-999,0.0,0.0,90,0.00,,,-99.99,0,WeatherLink 5.7,2013-01-27 14:10:00,
2013-01-27 07:15:00,34.9,32.3,29.80,North,-999,0.0,0.0,90,0.00,,,-99.99,0,WeatherLink 5.7,2013-01-27 14:15:00,
2013-01-27 07:20:00,34.9,32.3,29.82,North,-999,0.0,0.0,90,0.00,,,-99.99,0,WeatherLink 5.7,2013-01-27 14:20:00,
2013-01-27 07:30:00,35.0,32.4,29.82,North,-999,0.0,0.0,90,0.01,,,-99.99,0,WeatherLink 5.7,2013-01-27 14:30:00,
2013-01-27 07:35:00,35.0,32.4,29.82,NNW,337,0.0,2.0,90,0.01,,,-99.99,0,WeatherLink 5.7,2013-01-27 14:35:00,
2013-01-27 07:40:00,35.2,32.3,29.82,North,0,0.0,3.0,89,0.01,,,-99.99,5,WeatherLink 5.7,2013-01-27 14:40:00,
2013-01-27 07:50:00,35.2,32.3,29.82,North,0,0.0,2.0,89,0.01,,,-99.99,7,WeatherLink 5.7,2013-01-27 14:50:00,
2013-01-27 07:55:00,35.2,32.3,29.82,NNW,337,0.0,4.0,89,0.01,,,-99.99,9,WeatherLink 5.7,2013-01-27 14:55:00,
2013-01-27 08:00:00,35.3,32.4,29.82,NNW,337,2.0,7.0,89,0.01,,,-99.99,11,WeatherLink 5.7,2013-01-27 15:00:00,
2013-01-27 08:10:00,35.9,32.7,29.82,NNW,337,2.0,5.0,88,0.01,,,-99.99,16,WeatherLink 5.7,2013-01-27 15:10:00,
2013-01-27 08:20:00,36.0,32.2,29.82,NNW,337,3.0,10.0,86,0.01,,,-99.99,23,WeatherLink 5.7,2013-01-27 15:20:00,
2013-01-27 08:25:00,36.2,32.4,29.82,NW,315,3.0,6.0,86,0.00,,,-99.99,27,WeatherLink 5.7,2013-01-27 15:25:00,
2013-01-27 08:30:00,36.3,32.2,29.82,NNW,337,2.0,6.0,85,0.00,,,-99.99,31,WeatherLink 5.7,2013-01-27 15:30:00,
2013-01-27 08:40:00,36.5,32.1,29.82,North,-999,0.0,0.0,84,0.00,,,-99.99,40,WeatherLink 5.7,2013-01-27 15:40:00,
2013-01-27 08:45:00,36.5,32.1,29.82,North,-999,0.0,0.0,84,0.00,,,-99.99,45,WeatherLink 5.7,2013-01-27 15:45:00,
2013-01-27 08:55:00,36.3,32.2,29.82,ENE,67,0.0,5.0,85,0.00,,,-99.99,68,WeatherLink 5.7,2013-01-27 15:55:00,
2013-01-27 09:00:00,36.3,32.2,29.82,ENE,67,1.0,9.0,85,0.00,,,-99.99,77,WeatherLink 5.7,2013-01-27 16:00:00,
2013-01-27 09:10:00,36.5,32.1,29.82,NW,315,0.0,3.0,84,0.00,,,-99.99,82,WeatherLink 5.7,2013-01-27 16:10:00,
2013-01-27 09:20:00,36.6,32.2,29.84,NNE,22,0.0,2.0,84,0.00,,,-99.99,77,WeatherLink 5.7,2013-01-27 16:20:00,
2013-01-27 09:25:00,36.7,32.0,29.84,NNW,337,0.0,4.0,83,0.00,,,-99.99,79,WeatherLink 5.7,2013-01-27 16:25:00,
2013-01-27 09:30:00,36.9,32.2,29.84,North,0,0.0,3.0,83,0.00,,,-99.99,85,WeatherLink 5.7,2013-01-27 16:30:00,
2013-01-27 09:40:00,37.2,32.2,29.84,North,0,1.0,4.0,82,0.00,,,-99.99,105,WeatherLink 5.7,2013-01-27 16:40:00,
2013-01-27 09:50:00,37.3,31.7,29.84,NNW,337,1.0,6.0,80,0.00,,,-99.99,113,WeatherLink 5.7,2013-01-27 16:50:00,
2013-01-27 09:55:00,37.5,31.9,29.84,NNW,337,2.0,7.0,80,0.00,,,-99.99,135,WeatherLink 5.7,2013-01-27 16:55:00,
2013-01-27 10:00:00,37.6,32.0,29.84,NNW,337,2.0,6.0,80,0.00,,,-99.99,146,WeatherLink 5.7,2013-01-27 17:00:00,
2013-01-27 10:10:00,38.0,32.1,29.84,NNW,337,1.0,5.0,79,0.00,,,-99.99,202,WeatherLink 5.7,2013-01-27 17:10:00,
2013-01-27 10:15:00,38.2,31.9,29.84,NNW,337,1.0,5.0,78,0.00,,,-99.99,145,WeatherLink 5.7,2013-01-27 17:15:00,
2013-01-27 10:20:00,38.2,31.9,29.85,NNW,337,0.0,3.0,78,0.00,,,-99.99,160,WeatherLink 5.7,2013-01-27 17:20:00,
2013-01-27 10:30:00,38.6,32.0,29.85,NNW,337,2.0,5.0,77,0.00,,,-99.99,186,WeatherLink 5.7,2013-01-27 17:30:00,
2013-01-27 10:35:00,38.8,31.9,29.84,NNW,337,2.0,6.0,76,0.00,,,-99.99,198,WeatherLink 5.7,2013-01-27 17:35:00,
2013-01-27 10:40:00,38.9,32.0,29.84,NNW,337,1.0,5.0,76,0.00,,,-99.99,192,WeatherLink 5.7,2013-01-27 17:40:00,
2013-01-27 10:45:00,38.9,32.0,29.84,NNW,337,2.0,7.0,76,0.00,,,-99.99,184,WeatherLink 5.7,2013-01-27 17:45:00,
2013-01-27 10:55:00,38.9,32.0,29.84,NNW,337,3.0,5.0,76,0.00,,,-99.99,233,WeatherLink 5.7,2013-01-27 17:55:00,
2013-01-27 11:00:00,39.0,32.1,29.84,NNW,337,2.0,6.0,76,0.00,,,-99.99,220,WeatherLink 5.7,2013-01-27 18:00:00,
2013-01-27 11:10:00,39.0,32.1,29.83,NW,315,3.0,7.0,76,0.00,,,-99.99,247,WeatherLink 5.7,2013-01-27 18:10:00,
2013-01-27 11:15:00,39.0,32.1,29.83,NW,315,3.0,7.0,76,0.00,,,-99.99,238,WeatherLink 5.7,2013-01-27 18:15:00,
2013-01-27 11:20:00,38.9,32.0,29.83,NNW,337,4.0,7.0,76,0.00,,,-99.99,261,WeatherLink 5.7,2013-01-27 18:20:00,
2013-01-27 11:30:00,39.2,32.6,29.83,NW,315,1.0,3.0,77,0.00,,,-99.99,308,WeatherLink 5.7,2013-01-27 18:30:00,
2013-01-27 11:35:00,39.5,32.6,29.82,NNW,337,1.0,3.0,76,0.00,,,-99.99,292,WeatherLink 5.7,2013-01-27 18:35:00,
2013-01-27 11:45:00,39.5,32.6,29.82,NW,315,2.0,5.0,76,0.00,,,-99.99,273,WeatherLink 5.7,2013-01-27 18:45:00,
2013-01-27 11:50:00,39.6,32.7,29.82,NW,315,1.0,5.0,76,0.00,,,-99.99,274,WeatherLink 5.7,2013-01-27 18:50:00,
2013-01-27 12:00:00,40.0,32.7,29.82,West,270,0.0,3.0,75,0.00,,,-99.99,297,WeatherLink 5.7,2013-01-27 19:00:00,
2013-01-27 12:10:00,40.2,32.6,29.80,NW,315,1.0,3.0,74,0.00,,,-99.99,241,WeatherLink 5.7,2013-01-27 19:10:00,
2013-01-27 12:20:00,40.0,32.4,29.80,NW,315,1.0,4.0,74,0.00,,,-99.99,228,WeatherLink 5.7,2013-01-27 19:20:00,
2013-01-27 12:30:00,40.2,32.6,29.80,NW,315,0.0,3.0,74,0.00,,,-99.99,223,WeatherLink 5.7,2013-01-27 19:30:00,
2013-01-27 12:35:00,40.2,32.2,29.78,NW,315,0.0,2.0,73,0.00,,,-99.99,252,WeatherLink 5.7,2013-01-27 19:35:00,
2013-01-27 12:45:00,40.8,32.8,29.78,NW,315,0.0,4.0,73,0.00,,,-99.99,281,WeatherLink 5.7,2013-01-27 19:45:00,
2013-01-27 12:50:00,40.8,32.8,29.76,NNW,337,3.0,6.0,73,0.00,,,-99.99,269,WeatherLink 5.7,2013-01-27 19:50:00,
2013-01-27 13:00:00,40.9,32.9,29.76,NW,315,1.0,5.0,73,0.00,,,-99.99,281,WeatherLink 5.7,2013-01-27 20:00:00,
2013-01-27 13:10:00,40.9,32.9,29.75,NW,315,3.0,5.0,73,0.00,,,-99.99,255,WeatherLink 5.7,2013-01-27 20:10:00,
2013-01-27 13:15:00,41.0,33.0,29.75,NW,315,3.0,5.0,73,0.00,,,-99.99,325,WeatherLink 5.7,2013-01-27 20:15:00,
2013-01-27 13:20:00,41.0,33.0,29.75,NNW,337,2.0,5.0,73,0.00,,,-99.99,282,WeatherLink 5.7,2013-01-27 20:20:00,
2013-01-27 13:25:00,41.0,32.7,29.75,NW,315,2.0,5.0,72,0.00,,,-99.99,260,WeatherLink 5.7,2013-01-27 20:25:00,
2013-01-27 13:35:00,41.5,33.1,29.74,NW,315,1.0,4.0,72,0.00,,,-99.99,298,WeatherLink 5.7,2013-01-27 20:35:00,
2013-01-27 13:40:00,41.5,32.8,29.74,NW,315,1.0,6.0,71,0.00,,,-99.99,291,WeatherLink 5.7,2013-01-27 20:40:00,
2013-01-27 13:50:00,41.9,33.2,29.74,NNW,337,2.0,4.0,71,0.00,,,-99.99,261,WeatherLink 5.7,2013-01-27 20:50:00,
2013-01-27 13:55:00,42.0,32.9,29.74,NW,315,2.0,5.0,70,0.00,,,-99.99,257,WeatherLink 5.7,2013-01-27 20:55:00,
2013-01-27 14:00:00,42.0,32.9,29.74,NW,315,4.0,7.0,70,0.00,,,-99.99,254,WeatherLink 5.7,2013-01-27 21:00:00,
2013-01-27 14:10:00,41.8,33.1,29.73,NW,315,4.0,7.0,71,0.00,,,-99.99,309,WeatherLink 5.7,2013-01-27 21:10:00,
2013-01-27 14:15:00,42.6,33.9,29.73,NW,315,2.0,5.0,71,0.00,,,-99.99,564,WeatherLink 5.7,2013-01-27 21:15:00,
2013-01-27 14:20:00,42.6,33.5,29.71,NW,315,3.0,6.0,70,0.00,,,-99.99,168,WeatherLink 5.7,2013-01-27 21:20:00,
2013-01-27 14:30:00,42.2,33.5,29.71,NW,315,3.0,5.0,71,0.00,,,-99.99,233,WeatherLink 5.7,2013-01-27 21:30:00,
2013-01-27 14:35:00,42.6,33.9,29.71,NW,315,3.0,7.0,71,0.00,,,-99.99,277,WeatherLink 5.7,2013-01-27 21:35:00,
2013-01-27 14:45:00,43.8,34.6,29.71,NW,315,4.0,7.0,70,0.00,,,-99.99,628,WeatherLink 5.7,2013-01-27 21:45:00,
2013-01-27 14:50:00,43.8,34.3,29.71,NW,315,6.0,13.0,69,0.00,,,-99.99,631,WeatherLink 5.7,2013-01-27 21:50:00,
2013-01-27 15:00:00,43.2,33.7,29.71,NW,315,6.0,12.0,69,0.00,,,-99.99,587,WeatherLink 5.7,2013-01-27 22:00:00,
2013-01-27 15:10:00,43.5,34.0,29.71,NW,315,5.0,10.0,69,0.00,,,-99.99,569,WeatherLink 5.7,2013-01-27 22:10:00,
2013-01-27 15:15:00,43.6,34.1,29.71,NW,315,5.0,9.0,69,0.00,,,-99.99,518,WeatherLink 5.7,2013-01-27 22:15:00,
2013-01-27 15:25:00,43.5,34.4,29.69,NW,315,6.0,12.0,70,0.00,,,-99.99,434,WeatherLink 5.7,2013-01-27 22:25:00,
2013-01-27 15:35:00,43.5,34.4,29.68,NW,315,6.0,9.0,70,0.00,,,-99.99,413,WeatherLink 5.7,2013-01-27 22:35:00,
2013-01-27 15:40:00,43.3,34.2,29.68,NW,315,7.0,10.0,70,0.00,,,-99.99,396,WeatherLink 5.7,2013-01-27 22:40:00,
2013-01-27 15:50:00,42.5,34.1,29.69,NW,315,8.0,12.0,72,0.00,,,-99.99,327,WeatherLink 5.7,2013-01-27 22:50:00,
2013-01-27 16:00:00,42.5,34.1,29.69,NW,315,5.0,8.0,72,0.00,,,-99.99,377,WeatherLink 5.7,2013-01-27 23:00:00,
2013-01-27 16:10:00,41.9,33.9,29.70,NW,315,5.0,9.0,73,0.00,,,-99.99,243,WeatherLink 5.7,2013-01-27 23:10:00,
2013-01-27 16:20:00,41.0,33.7,29.71,NW,315,4.0,7.0,75,0.00,,,-99.99,61,WeatherLink 5.7,2013-01-27 23:20:00,
2013-01-27 16:25:00,40.8,33.8,29.71,NW,315,4.0,9.0,76,0.00,,,-99.99,45,WeatherLink 5.7,2013-01-27 23:25:00,
2013-01-27 16:30:00,40.6,33.6,29.71,NW,315,4.0,7.0,76,0.00,,,-99.99,37,WeatherLink 5.7,2013-01-27 23:30:00,
2013-01-27 16:40:00,40.5,33.5,29.71,NNW,337,3.0,6.0,76,0.00,,,-99.99,32,WeatherLink 5.7,2013-01-27 23:40:00,
2013-01-27 16:50:00,40.3,33.7,29.71,NW,315,2.0,4.0,77,0.00,,,-99.99,39,WeatherLink 5.7,2013-01-27 23:50:00,
2013-01-27 16:55:00,40.2,33.6,29.71,NW,315,3.0,5.0,77,0.00,,,-99.99,35,WeatherLink 5.7,2013-01-27 23:55:00,
2013-01-27 17:00:00,40.2,33.6,29.71,NW,315,5.0,7.0,77,0.00,,,-99.99,30,WeatherLink 5.7,2013-01-28 00:00:00,
2013-01-27 17:10:00,39.9,33.6,29.72,WNW,292,3.0,5.0,78,0.00,,,-99.99,16,WeatherLink 5.7,2013-01-28 00:10:00,
2013-01-27 17:15:00,39.8,33.5,29.72,NW,315,2.0,6.0,78,0.00,,,-99.99,9,WeatherLink 5.7,2013-01-28 00:15:00,
2013-01-27 17:20:00,39.6,33.6,29.73,NW,315,3.0,6.0,79,0.00,,,-99.99,5,WeatherLink 5.7,2013-01-28 00:20:00,
2013-01-27 17:25:00,39.6,33.6,29.73,NW,315,2.0,6.0,79,0.00,,,-99.99,2,WeatherLink 5.7,2013-01-28 00:25:00,
2013-01-27 17:35:00,39.8,33.8,29.73,WNW,292,2.0,4.0,79,0.00,,,-99.99,0,WeatherLink 5.7,2013-01-28 00:35:00,
2013-01-27 17:40:00,39.8,33.5,29.73,NW,315,1.0,3.0,78,0.00,,,-99.99,0,WeatherLink 5.7,2013-01-28 00:40:00,
2013-01-27 17:50:00,39.5,33.5,29.74,North,-999,0.0,0.0,79,0.00,,,-99.99,0,WeatherLink 5.7,2013-01-28 00:50:00,
2013-01-27 17:55:00,39.2,33.2,29.74,North,-999,0.0,0.0,79,0.00,,,-99.99,0,WeatherLink 5.7,2013-01-28 00:55:00,
2013-01-27 18:00:00,39.0,33.0,29.74,NW,315,0.0,2.0,79,0.00,,,-99.99,0,WeatherLink 5.7,2013-01-28 01:00:00,
2013-01-27 18:10:00,39.0,33.0,29.76,NW,315,0.0,2.0,79,0.00,,,-99.99,0,WeatherLink 5.7,2013-01-28 01:10:00,
2013-01-27 18:15:00,38.9,32.9,29.76,NW,315,0.0,2.0,79,0.00,,,-99.99,0,WeatherLink 5.7,2013-01-28 01:15:00,
2013-01-27 18:25:00,38.5,32.9,29.74,NW,315,0.0,2.0,80,0.00,,,-99.99,0,WeatherLink 5.7,2013-01-28 01:25:00,
2013-01-27 18:35:00,38.2,32.6,29.76,North,-999,0.0,0.0,80,0.00,,,-99.99,0,WeatherLink 5.7,2013-01-28 01:35:00,
2013-01-27 18:40:00,37.9,32.3,29.76,North,-999,0.0,0.0,80,0.00,,,-99.99,0,WeatherLink 5.7,2013-01-28 01:40:00,
2013-01-27 18:50:00,37.0,31.4,29.76,North,-999,0.0,0.0,80,0.00,,,-99.99,0,WeatherLink 5.7,2013-01-28 01:50:00,
2013-01-27 18:55:00,36.7,31.1,29.76,North,-999,0.0,0.0,80,0.00,,,-99.99,0,WeatherLink 5.7,2013-01-28 01:55:00,
2013-01-27 19:00:00,36.5,31.2,29.76,North,-999,0.0,0.0,81,0.00,,,-99.99,0,WeatherLink 5.7,2013-01-28 02:00:00,
2013-01-27 19:10:00,36.0,30.7,29.77,North,-999,0.0,0.0,81,0.00,,,-99.99,0,WeatherLink 5.7,2013-01-28 02:10:00,
2013-01-27 19:15:00,35.9,30.9,29.77,North,-999,0.0,0.0,82,0.00,,,-99.99,0,WeatherLink 5.7,2013-01-28 02:15:00,
2013-01-27 19:20:00,35.7,30.7,29.75,North,-999,0.0,0.0,82,0.00,,,-99.99,0,WeatherLink 5.7,2013-01-28 02:20:00,
2013-01-27 19:30:00,35.6,30.9,29.75,North,-999,0.0,0.0,83,0.00,,,-99.99,0,WeatherLink 5.7,2013-01-28 02:30:00,
2013-01-27 19:40:00,35.6,30.9,29.73,North,-999,0.0,0.0,83,0.00,,,-99.99,0,WeatherLink 5.7,2013-01-28 02:40:00,
2013-01-27 19:45:00,35.6,31.2,29.73,NW,315,0.0,1.0,84,0.00,,,-99.99,0,WeatherLink 5.7,2013-01-28 02:45:00,
2013-01-27 19:55:00,35.6,31.2,29.73,NW,315,0.0,1.0,84,0.00,,,-99.99,0,WeatherLink 5.7,2013-01-28 02:55:00,
2013-01-27 20:00:00,35.7,31.3,29.73,NW,315,0.0,1.0,84,0.00,,,-99.99,0,WeatherLink 5.7,2013-01-28 03:00:00,
2013-01-27 20:10:00,35.3,30.9,29.73,North,-999,0.0,0.0,84,0.00,,,-99.99,0,WeatherLink 5.7,2013-01-28 03:10:00,
2013-01-27 20:15:00,35.2,31.1,29.73,North,-999,0.0,0.0,85,0.00,,,-99.99,0,WeatherLink 5.7,2013-01-28 03:15:00,
2013-01-27 20:20:00,35.2,31.1,29.73,North,-999,0.0,0.0,85,0.00,,,-99.99,0,WeatherLink 5.7,2013-01-28 03:20:00,
2013-01-27 20:30:00,35.5,31.4,29.73,East,90,1.0,3.0,85,0.00,,,-99.99,0,WeatherLink 5.7,2013-01-28 03:30:00,
2013-01-27 20:35:00,35.2,31.1,29.72,East,90,0.0,2.0,85,0.00,,,-99.99,0,WeatherLink 5.7,2013-01-28 03:35:00,
2013-01-27 20:40:00,35.2,31.1,29.72,East,90,0.0,2.0,85,0.00,,,-99.99,0,WeatherLink 5.7,2013-01-28 03:40:00,
2013-01-27 20:45:00,34.9,30.8,29.72,North,-999,0.0,0.0,85,0.00,,,-99.99,0,WeatherLink 5.7,2013-01-28 03:45:00,
2013-01-27 20:55:00,34.3,30.3,29.71,East,90,0.0,2.0,85,0.00,,,-99.99,0,WeatherLink 5.7,2013-01-28 03:55:00,
2013-01-27 21:00:00,34.0,30.0,29.71,North,-999,0.0,0.0,85,0.00,,,-99.99,0,WeatherLink 5.7,2013-01-28 04:00:00,
2013-01-27 21:10:00,34.1,30.1,29.73,North,-999,0.0,0.0,85,0.00,,,-99.99,0,WeatherLink 5.7,2013-01-28 04:10:00,
2013-01-27 21:15:00,33.8,29.8,29.73,North,-999,0.0,0.0,85,0.00,,,-99.99,0,WeatherLink 5.7,2013-01-28 04:15:00,
2013-01-27 21:25:00,33.1,29.1,29.70,East,90,0.0,2.0,85,0.00,,,-99.99,0,WeatherLink 5.7,2013-01-28 04:25:00,
2013-01-27 21:35:00,32.9,29.2,29.71,East,90,0.0,1.0,86,0.00,,,-99.99,0,WeatherLink 5.7,2013-01-28 04:35:00,
2013-01-27 21:45:00,33.4,29.7,29.71,WNW,292,0.0,3.0,86,0.00,,,-99.99,0,WeatherLink 5.7,2013-01-28 04:45:00,
2013-01-27 21:50:00,33.8,30.1,29.69,WNW,292,1.0,4.0,86,0.00,,,-99.99,0,WeatherLink 5.7,2013-01-28 04:50:00,
2013-01-27 21:55:00,33.8,30.1,29.69,East,90,1.0,3.0,86,0.00,,,-99.99,0,WeatherLink 5.7,2013-01-28 04:55:00,
2013-01-27 22:00:00,33.7,30.0,29.69,East,90,0.0,2.0,86,0.00,,,-99.99,0,WeatherLink 5.7,2013-01-28 05:00:00,
2013-01-27 22:05:00,33.7,30.0,29.69,North,-999,0.0,0.0,86,0.00,,,-99.99,0,WeatherLink 5.7,2013-01-28 05:05:00,
2013-01-27 22:10:00,33.5,29.8,29.69,North,-999,0.0,0.0,86,0.00,,,-99.99,0,WeatherLink 5.7,2013-01-28 05:10:00,
2013-01-27 22:15:00,33.5,30.0,29.69,East,90,0.0,2.0,87,0.00,,,-99.99,0,WeatherLink 5.7,2013-01-28 05:15:00,
2013-01-27 22:25:00,33.5,30.0,29.70,ESE,112,0.0,3.0,87,0.00,,,-99.99,0,WeatherLink 5.7,2013-01-28 05:25:00,
2013-01-27 22:30:00,33.8,30.3,29.70,NNW,337,1.0,4.0,87,0.00,,,-99.99,0,WeatherLink 5.7,2013-01-28 05:30:00,
2013-01-27 22:35:00,34.6,31.1,29.69,NW,315,3.0,9.0,87,0.00,,,-99.99,0,WeatherLink 5.7,2013-01-28 05:35:00,
2013-01-27 22:40:00,35.5,31.7,29.69,WNW,292,4.0,12.0,86,0.00,,,-99.99,0,WeatherLink 5.7,2013-01-28 05:40:00,
2013-01-27 22:45:00,36.6,31.9,29.69,West,270,3.0,5.0,83,0.00,,,-99.99,0,WeatherLink 5.7,2013-01-28 05:45:00,
2013-01-27 22:50:00,37.2,31.6,29.66,WSW,247,1.0,6.0,80,0.00,,,-99.99,0,WeatherLink 5.7,2013-01-28 05:50:00,
2013-01-27 23:00:00,38.3,31.4,29.66,West,270,3.0,6.0,76,0.00,,,-99.99,0,WeatherLink 5.7,2013-01-28 06:00:00,
2013-01-27 23:10:00,40.3,31.3,29.65,WNW,292,1.0,6.0,70,0.00,,,-99.99,0,WeatherLink 5.7,2013-01-28 06:10:00,
2013-01-27 23:20:00,40.8,30.3,29.64,NNW,337,1.0,4.0,66,0.00,,,-99.99,0,WeatherLink 5.7,2013-01-28 06:20:00,
2013-01-27 23:25:00,40.9,30.4,29.64,NNW,337,1.0,5.0,66,0.00,,,-99.99,0,WeatherLink 5.7,2013-01-28 06:25:00,
2013-01-27 23:35:00,40.6,29.7,29.62,WNW,292,1.0,4.0,65,0.00,,,-99.99,0,WeatherLink 5.7,2013-01-28 06:35:00,
2013-01-27 23:40:00,41.2,29.5,29.62,NNW,337,2.0,7.0,63,0.00,,,-99.99,0,WeatherLink 5.7,2013-01-28 06:40:00,
2013-01-27 23:50:00,42.2,28.9,29.62,West,270,0.0,3.0,59,0.00,,,-99.99,0,WeatherLink 5.7,2013-01-28 06:50:00,
2013-01-27 23:55:00,42.0,29.1,29.62,West,270,0.0,4.0,60,0.00,,,-99.99,0,WeatherLink 5.7,2013-01-28 06:55:00,